Home   Weather   Coos Bay   Past weeks
Flag for USA

Past Weather in Coos Bay, Oregon, USA — Yesterday and Last 2 Weeks

Now
66 °F

Mostly cloudy.


Feels Like: 66 °F
Forecast: 64 / 57 °F
Wind: 16 mph from Southwest

Location: North Bend Weather Reporting Station

Current Time: Sep 17, 2019 at 4:45:24 pm

Latest Report: Sep 17, 2019 at 4:17 pm


Visibility: 10 mi

Pressure: 29.84 "Hg

Humidity: 78%

Dew Point: 59 °F

Location of Coos BayLocation

Past Weather in Coos Bay — Graph

°F

Coos Bay Temperature Yesterday

Maximum temperature yesterday: 67 °F (at 1:56 pm)
Minimum temperature yesterday: 55 °F (at 2:56 am)
Average temperature yesterday: 60 °F

High & Low Weather Summary for the Past Weeks

 TemperatureHumidityPressure
High73 °F (Sep 12, 2:56 pm)100% (Sep 3, 12:05 am)30.19 "Hg (Sep 3, 12:05 am)
Low54 °F (Sep 4, 2:56 am)55% (Sep 12, 2:56 pm)29.82 "Hg (Sep 15, 8:56 am)
Average62 °F90%30.03 "Hg
* Reported Sep 2 3:56 pm — Sep 17 3:31 pm, Coos Bay. Weather by CustomWeather, © 2019

Note: Actual official high and low records may vary slightly from our data, if they occured in-between our weather recording intervals... More about our weather records

Advertising

Coos Bay Weather History for the Previous 24 Hours

Scroll right to see more
 ConditionsComfort  
Time TempWeatherWind HumidityBarometerVisibility
3:31 pm
Tue, Sep 17
66 °FPartly sunny.13 mph83%29.85 "Hg10 mi
2:56 pm65 °FPartly sunny.16 mph81%29.85 "Hg10 mi
2:35 pm64 °FPartly sunny.18 mph88%29.85 "Hg10 mi
2:22 pm63 °FLight rain. Overcast.20 mph94%29.85 "Hg10 mi
1:56 pm62 °FLight rain. More clouds than sun.13 mph93%29.86 "Hg8 mi
1:04 pm63 °FLight rain. Fog.13 mph94%29.87 "Hg5 mi
12:56 pm61 °FLight rain. Fog.13 mph93%29.87 "Hg3 mi
12:39 pm61 °FLight rain. Fog.10 mph94%29.87 "Hg3 mi
12:20 pm61 °FLight rain. Fog.13 mph94%29.87 "Hg2 mi
12:01 pm61 °FLight rain. Cloudy.10 mph94%29.87 "Hg9 mi
11:26 am59 °FLight rain. Fog.10 mph94%29.87 "Hg6 mi
11:02 am59 °FLight rain. Mostly cloudy.7 mph94%29.87 "Hg9 mi
10:39 am57 °FLight rain. More clouds than sun.13 mph100%29.87 "Hg7 mi
9:56 am57 °FLight rain. More clouds than sun.12 mph100%29.87 "Hg9 mi
9:36 am57 °FLight rain. Fog.8 mph94%29.87 "Hg5 mi
8:56 am57 °FLight rain. Fog.10 mph96%29.87 "Hg6 mi
8:06 am57 °FRain. Fog.15 mph94%29.88 "Hg5 mi
7:36 am57 °FLight rain. Mostly cloudy.12 mph94%29.88 "Hg10 mi
6:56 am58 °FLight rain. Mostly cloudy.9 mph87%29.88 "Hg10 mi
5:56 am60 °FLight rain. Overcast.9 mph75%29.89 "Hg10 mi
4:56 am59 °FOvercast.10 mph78%29.91 "Hg10 mi
3:56 am59 °FOvercast.8 mph81%29.93 "Hg10 mi
2:56 am58 °FOvercast.9 mph84%29.95 "Hg10 mi
1:56 am58 °FPassing clouds.8 mph84%29.96 "Hg10 mi
12:56 am57 °FPassing clouds.9 mph87%29.96 "Hg10 mi
11:56 pm
Mon, Sep 16
57 °FPassing clouds.8 mph90%29.98 "Hg10 mi
10:56 pm57 °FPassing clouds.7 mph93%29.98 "Hg10 mi
9:56 pm58 °FPassing clouds.7 mph87%29.97 "Hg10 mi
8:56 pm59 °FPassing clouds.8 mph87%29.97 "Hg10 mi
7:56 pm60 °FClear.8 mph83%29.97 "Hg10 mi
6:56 pm63 °FSunny.13 mph75%29.96 "Hg10 mi
5:56 pm65 °FSunny.10 mph68%29.95 "Hg10 mi
4:56 pm66 °FSunny.15 mph68%29.94 "Hg10 mi
Weather by CustomWeather, © 2019

See weather overview